Hourly Weather Koziniec

Today, 23 October, Friday

Time Temperature Precipitation Wind Pressure Humidity
00:00 +11°C° 0 mm 4 mps 743 mmHg 91%
01:00 +11°C° 0 mm 3 mps 744 mmHg 92%
02:00 +11°C° 0 mm 3 mps 743 mmHg 87%
03:00 +11°C° 0 mm 4 mps 742 mmHg 87%
04:00 +11°C° 0 mm 4 mps 742 mmHg 87%
05:00 +11°C° 0 mm 4 mps 742 mmHg 87%
06:00 +11°C° 0 mm 4 mps 742 mmHg 87%
07:00 +10°C° 0 mm 5 mps 741 mmHg 87%
08:00 +10°C° 0 mm 5 mps 741 mmHg 87%
09:00 +12°C° 0 mm 5 mps 741 mmHg 84%
10:00 +13°C° 0 mm 5 mps 741 mmHg 81%
11:00 +14°C° 0 mm 5 mps 742 mmHg 77%
12:00 +15°C° 0 mm 5 mps 742 mmHg 75%
13:00 +15°C° 0 mm 5 mps 741 mmHg 73%
14:00 +16°C° 0 mm 5 mps 741 mmHg 71%
15:00 +12°C° 0 mm 2 mps 741 mmHg 92%
16:00 +13°C° 0 mm 2 mps 741 mmHg 89%
17:00 +13°C° 0 mm 3 mps 741 mmHg 86%
18:00 +12°C° 0 mm 3 mps 741 mmHg 87%
19:00 +13°C° 0 mm 2 mps 742 mmHg 89%
20:00 +13°C° 0 mm 2 mps 742 mmHg 90%
21:00 +12°C° 0 mm 2 mps 742 mmHg 91%
22:00 +12°C° 0 mm 2 mps 742 mmHg 93%
23:00 +10°C° 0 mm 2 mps 742 mmHg 95%

Tomorrow, 24 October, Saturday

Time Temperature Precipitation Wind Pressure Humidity
00:00 +10°C° 0 mm 2 mps 742 mmHg 95%
01:00 +11°C° 0 mm 1 mps 741 mmHg 95%
02:00 +11°C° 0 mm 1 mps 741 mmHg 95%
03:00 +11°C° 0.2 mm 1 mps 741 mmHg 95%
04:00 +11°C° 0.2 mm 1 mps 741 mmHg 95%
05:00 +11°C° 0.2 mm 1 mps 741 mmHg 95%
06:00 +11°C° 0.7 mm 1 mps 741 mmHg 94%
07:00 +11°C° 0.7 mm 1 mps 741 mmHg 94%
08:00 +11°C° 0.7 mm 1 mps 741 mmHg 94%
09:00 +12°C° 0.1 mm 1 mps 741 mmHg 89%
10:00 +12°C° 0.1 mm 2 mps 742 mmHg 85%
11:00 +13°C° 0.1 mm 2 mps 742 mmHg 80%
12:00 +14°C° 0 mm 2 mps 742 mmHg 77%
13:00 +13°C° 0 mm 3 mps 742 mmHg 74%
14:00 +14°C° 0 mm 4 mps 742 mmHg 71%
15:00 +14°C° 0 mm 4 mps 742 mmHg 75%
16:00 +13°C° 0 mm 3 mps 742 mmHg 78%
17:00 +12°C° 0 mm 3 mps 742 mmHg 82%
18:00 +12°C° 0 mm 3 mps 743 mmHg 84%
19:00 +11°C° 0 mm 3 mps 743 mmHg 86%
20:00 +11°C° 0 mm 3 mps 744 mmHg 87%
21:00 +10°C° 0 mm 3 mps 744 mmHg 89%
22:00 +10°C° 0 mm 3 mps 745 mmHg 91%
23:00 +9°C° 0 mm 2 mps 745 mmHg 93%

Day after tomorrow, 25 October, Sunday

Time Temperature Precipitation Wind Pressure Humidity
00:00 +9°C° 0 mm 2 mps 745 mmHg 93%
01:00 +8°C° 0 mm 2 mps 745 mmHg 93%
02:00 +8°C° 0 mm 2 mps 745 mmHg 93%
03:00 +8°C° 0 mm 2 mps 745 mmHg 93%
04:00 +7°C° 0 mm 2 mps 746 mmHg 93%
05:00 +7°C° 0 mm 2 mps 746 mmHg 92%
06:00 +7°C° 0 mm 2 mps 746 mmHg 92%
07:00 +7°C° 0 mm 3 mps 746 mmHg 91%
08:00 +8°C° 0 mm 3 mps 746 mmHg 91%
09:00 +9°C° 0 mm 3 mps 746 mmHg 87%
10:00 +10°C° 0 mm 3 mps 747 mmHg 83%
11:00 +12°C° 0 mm 3 mps 747 mmHg 79%
12:00 +13°C° 0 mm 3 mps 747 mmHg 75%
13:00 +13°C° 0 mm 3 mps 747 mmHg 72%
14:00 +14°C° 0 mm 3 mps 747 mmHg 68%
15:00 +14°C° 0 mm 2 mps 746 mmHg 73%
16:00 +13°C° 0 mm 2 mps 746 mmHg 77%
17:00 +12°C° 0 mm 2 mps 746 mmHg 82%
18:00 +12°C° 0 mm 2 mps 746 mmHg 85%
19:00 +10°C° 0 mm 2 mps 746 mmHg 87%
20:00 +9°C° 0 mm 3 mps 746 mmHg 90%
21:00 +9°C° 0 mm 3 mps 746 mmHg 91%
22:00 +9°C° 0 mm 3 mps 746 mmHg 91%
23:00 +9°C° 0 mm 3 mps 746 mmHg 92%

, 26 October, Monday

Time Temperature Precipitation Wind Pressure Humidity
00:00 +8°C° 0 mm 3 mps 746 mmHg 92%
01:00 +8°C° 0 mm 3 mps 746 mmHg 93%
02:00 +8°C° 0 mm 3 mps 746 mmHg 94%
03:00 +8°C° 0 mm 3 mps 746 mmHg 94%
04:00 +8°C° 0 mm 3 mps 745 mmHg 94%
05:00 +7°C° 0 mm 4 mps 745 mmHg 94%
06:00 +7°C° 0 mm 4 mps 745 mmHg 94%
07:00 +7°C° 0 mm 4 mps 745 mmHg 93%
08:00 +7°C° 0 mm 4 mps 745 mmHg 93%
09:00 +8°C° 0 mm 5 mps 744 mmHg 85%
10:00 +10°C° 0 mm 5 mps 744 mmHg 77%
11:00 +11°C° 0 mm 6 mps 744 mmHg 70%
12:00 +13°C° 0 mm 6 mps 744 mmHg 70%
13:00 +13°C° 0 mm 6 mps 743 mmHg 70%
14:00 +13°C° 0 mm 6 mps 743 mmHg 70%
15:00 +13°C° 0 mm 6 mps 742 mmHg 72%
16:00 +11°C° 0 mm 6 mps 742 mmHg 74%
17:00 +12°C° 0 mm 5 mps 742 mmHg 76%
18:00 +12°C° 0 mm 5 mps 742 mmHg 78%
19:00 +12°C° 0 mm 5 mps 742 mmHg 79%
20:00 +12°C° 0 mm 5 mps 741 mmHg 80%
21:00 +12°C° 0 mm 5 mps 741 mmHg 83%
22:00 +10°C° 0 mm 5 mps 741 mmHg 85%
23:00 +10°C° 0 mm 5 mps 741 mmHg 88%

26 October, Monday

Time Temperature Precipitation Wind Pressure Humidity
00:00 +8°C° 0 mm 3 mps 746 mmHg 92%
01:00 +8°C° 0 mm 3 mps 746 mmHg 93%
02:00 +8°C° 0 mm 3 mps 746 mmHg 94%
03:00 +8°C° 0 mm 3 mps 746 mmHg 94%
04:00 +8°C° 0 mm 3 mps 745 mmHg 94%
05:00 +7°C° 0 mm 4 mps 745 mmHg 94%
06:00 +7°C° 0 mm 4 mps 745 mmHg 94%
07:00 +7°C° 0 mm 4 mps 745 mmHg 93%
08:00 +7°C° 0 mm 4 mps 745 mmHg 93%
09:00 +8°C° 0 mm 5 mps 744 mmHg 85%
10:00 +10°C° 0 mm 5 mps 744 mmHg 77%
11:00 +11°C° 0 mm 6 mps 744 mmHg 70%
12:00 +13°C° 0 mm 6 mps 744 mmHg 70%
13:00 +13°C° 0 mm 6 mps 743 mmHg 70%
14:00 +13°C° 0 mm 6 mps 743 mmHg 70%
15:00 +13°C° 0 mm 6 mps 742 mmHg 72%
16:00 +11°C° 0 mm 6 mps 742 mmHg 74%
17:00 +12°C° 0 mm 5 mps 742 mmHg 76%
18:00 +12°C° 0 mm 5 mps 742 mmHg 78%
19:00 +12°C° 0 mm 5 mps 742 mmHg 79%
20:00 +12°C° 0 mm 5 mps 741 mmHg 80%
21:00 +12°C° 0 mm 5 mps 741 mmHg 83%
22:00 +10°C° 0 mm 5 mps 741 mmHg 85%
23:00 +10°C° 0 mm 5 mps 741 mmHg 88%

27 October, Tuesday

Time Temperature Precipitation Wind Pressure Humidity
00:00 +10°C° 0 mm 5 mps 741 mmHg 89%
01:00 +10°C° 0 mm 5 mps 741 mmHg 90%
02:00 +9°C° 0 mm 5 mps 741 mmHg 92%
03:00 +9°C° 0 mm 5 mps 741 mmHg 92%
04:00 +9°C° 0 mm 5 mps 741 mmHg 92%
05:00 +9°C° 0 mm 5 mps 741 mmHg 93%
06:00 +9°C° 0 mm 5 mps 741 mmHg 93%
07:00 +9°C° 0 mm 5 mps 741 mmHg 93%
08:00 +9°C° 0 mm 5 mps 741 mmHg 94%
09:00 +10°C° 0 mm 5 mps 741 mmHg 88%
10:00 +12°C° 0 mm 5 mps 741 mmHg 83%
11:00 +13°C° 0 mm 6 mps 742 mmHg 78%
12:00 +14°C° 0 mm 6 mps 742 mmHg 75%
13:00 +15°C° 0 mm 5 mps 742 mmHg 71%
14:00 +16°C° 0 mm 5 mps 742 mmHg 68%
15:00 +15°C° 0 mm 5 mps 742 mmHg 72%
16:00 +14°C° 0 mm 4 mps 742 mmHg 77%
17:00 +13°C° 0 mm 3 mps 742 mmHg 81%
18:00 +13°C° 0 mm 3 mps 742 mmHg 83%
19:00 +12°C° 0 mm 3 mps 743 mmHg 86%
20:00 +12°C° 0 mm 3 mps 743 mmHg 89%
21:00 +11°C° 0 mm 3 mps 743 mmHg 90%
22:00 +11°C° 0 mm 3 mps 743 mmHg 90%
23:00 +11°C° 0 mm 3 mps 744 mmHg 91%

28 October, Wednesday

Time Temperature Precipitation Wind Pressure Humidity
00:00 +11°C° 0 mm 3 mps 744 mmHg 92%
01:00 +10°C° 0 mm 3 mps 744 mmHg 92%
02:00 +10°C° 0 mm 3 mps 744 mmHg 93%
03:00 +10°C° 0 mm 2 mps 744 mmHg 93%
04:00 +10°C° 0 mm 2 mps 743 mmHg 94%
05:00 +10°C° 0 mm 2 mps 743 mmHg 94%
06:00 +10°C° 0 mm 2 mps 744 mmHg 94%
07:00 +10°C° 0 mm 3 mps 744 mmHg 94%
08:00 +10°C° 0 mm 3 mps 744 mmHg 95%
09:00 +11°C° 0 mm 3 mps 744 mmHg 90%
10:00 +12°C° 0 mm 3 mps 744 mmHg 86%
11:00 +13°C° 0 mm 3 mps 744 mmHg 81%
12:00 +14°C° 0 mm 3 mps 744 mmHg 79%
13:00 +14°C° 0 mm 3 mps 744 mmHg 76%
14:00 +16°C° 0 mm 3 mps 744 mmHg 74%
15:00 +14°C° 0 mm 3 mps 744 mmHg 79%
16:00 +14°C° 0 mm 2 mps 744 mmHg 83%
17:00 +13°C° 0 mm 2 mps 744 mmHg 88%
18:00 +12°C° 0 mm 2 mps 744 mmHg 89%
19:00 +12°C° 0 mm 2 mps 744 mmHg 90%
20:00 +12°C° 0 mm 2 mps 744 mmHg 92%
21:00 +10°C° 0 mm 2 mps 745 mmHg 90%
22:00 +10°C° 0 mm 2 mps 745 mmHg 89%
23:00 +10°C° 0 mm 2 mps 745 mmHg 87%
Show more